Regional Weather Roundup
Issued by NWS

Home | Current Version | Previous Version | Text Only | Print | Product List | Glossary On
Versions: 1 2 3 4 5 6 7 8 9 10 11 12 13 14 15 16 17 18 19 20 21 22 23 24 25 26 27 28
000
ASUS44 KJAN 240910
RWRMS

MISSISSIPPI HOURLY WEATHER ROUNDUP
NATIONAL WEATHER SERVICE JACKSON MS
400 AM CDT SUN SEP 24 2017

NOTE: "FAIR: INDICATES FEW OR NO CLOUDS BELOW 12,000 FEET WITH NO
SIGNIFICANT WEATHER AND/OR OBSTRUCTIONS TO VISIBILITY.

MSZ001>002-007>008-010>013-018>021-025>028-034>036-241000-
NORTHWEST MISSISSIPPI

CITY           SKY/WX    TMP DP  RH WIND       PRES   REMARKS
BATESVILLE     FAIR      67  66  95 CALM      29.98S FOG
CLARKSDALE       N/A     72  72 100 CALM      29.97S
CLEVELAND      FAIR      72  71  96 CALM      29.96R
GREENWOOD      CLEAR     68  67  96 NE3       29.96S
GREENVILLE     CLEAR     68  65  90 CALM      29.95S
TUNICA         FOG       68  68 100 CALM      29.98S VSB 3/4
WINONA         FAIR      66  66 100 CALM      29.97S
$$

MSZ003>006-009-014>017-022>024-029>033-037>039-241000-
NORTHEAST MISSISSIPPI

CITY           SKY/WX    TMP DP  RH WIND       PRES   REMARKS
COLUMBUS AFB   CLEAR     67  67 100 CALM      29.97S
STARKVILLE     FAIR      64  64 100 CALM      29.99R FOG
TUPELO         CLEAR     70  67  90 CALM      29.98S
$$

MSZ040-058-241000-
CENTRAL MISSISSIPPI

CITY           SKY/WX    TMP DP  RH WIND       PRES   REMARKS
JACKSON INTL   CLEAR     69  67  93 CALM      29.96R
JACKSON HAWKNS CLEAR     68  68 100 CALM      29.96S
MADISON        FAIR      66  64  94 CALM      29.96R
MERIDIAN KEY   CLEAR     67  66  97 CALM      29.97R
MERIDIAN NAS   CLEAR     67  66  97 CALM      29.97R
RAYMOND        FAIR      68  68 100 CALM      29.96R FOG
VICKSBURG VKS  SUNNY     68  68 100 CALM      29.97R
$$

MSZ059>079-241000-
SOUTH MISSISSIPPI

CITY           SKY/WX    TMP DP  RH WIND       PRES   REMARKS
COLUMBIA       FAIR      64 N/A N/A CALM      29.99S HAZE
HATTIESBURG    CLEAR     68  68 100 CALM      29.96R
LAUREL         FAIR      66  66 100 CALM      29.96S
MCCOMB         CLEAR     67  64  90 CALM      29.95S
NATCHEZ        CLEAR     68  66  93 CALM      29.95S
PINE BELT      CLEAR     66  65  96 CALM      29.97R
$$

MSZ080>082-241000-
COASTAL MISSISSIPPI

CITY           SKY/WX    TMP DP  RH WIND       PRES   REMARKS
BILOXI         PTCLDY    71  68  90 N5        29.91S
PASCAGOULA     PTCLDY    69  66  90 N3        29.91S
GULFPORT       PTCLDY    70  68  93 NW5       29.91S
$$

LAZ007>009-015>016-023>026-241000-
NORTHEAST LOUISIANA

CITY           SKY/WX    TMP DP  RH WIND       PRES   REMARKS
BASTROP        FAIR      70  70  98 CALM      29.95S
TALLULAH/VBURG CLEAR     69  68  96 SE3       29.95S
VIDALIA          N/A    N/A N/A N/A MISG      29.94R
$$




USA.gov is the U.S. government's official web portal to all federal, state and local government web resources and services.